NOAA NWS Hourly Roundups by Site

Regional Weather Roundup for San Diego, CA

To Select Another Site Choose from List

Select Site:  

000
ASUS46 KSGX 250911
RWRSGX

SAN DIEGO HOURLY WEATHER ROUNDUP
NATIONAL WEATHER SERVICE SAN DIEGO CA
200 AM PDT SUN AUG 25 2019

NOTE: "FAIR" INDICATES FEW OR NO CLOUDS BELOW 12,000 FEET WITH NO
SIGNIFICANT WEATHER AND/OR OBSTRUCTIONS TO VISIBILITY.

CAZ042-043-060-061-PZZ750-775-251000-

GREATER SAN DIEGO AREA

CITY           SKY/WX    TMP DP  RH WIND       PRES   REMARKS
SAN DIEGO AP   CLEAR     70  66  87 N5        29.96F
NATIONAL CITY    N/A    N/A N/A N/A CALM      29.96S
BROWN FIELD    CLEAR     67  63  87 CALM      29.96S
MIRAMAR MCAS   CLEAR     71  64  78 NW3       29.96S
MONTGOMERY FLD CLEAR     68  64  87 NW5       29.96S
GILLESPIE FLD  FAIR      70  63  78 CALM      29.95S

$$

NORTH SAN DIEGO COUNTY

CITY           SKY/WX    TMP DP  RH WIND       PRES   REMARKS
CAMP PENDLETON CLEAR     62  59  90 CALM      29.95F
OCEANSIDE AP   CLEAR     63  60  90 CALM      29.94F
OCEANSIDE HBR    N/A     67  64  91 CALM      29.97F
VISTA            N/A     65  59  81 CALM      29.93S
CARLSBAD       CLEAR     69  64  84 CALM      29.95F
DEL MAR          N/A     66  65  95 CALM      29.96S
LA JOLLA SCRIP   N/A     67  64  89 CALM      29.94F
FALLBROOK      FAIR      66  63  88 CALM      29.97F
ESCONDIDO        N/A     70  65  84 W2        29.94F
SAN MARCOS       N/A     67  63  87 CALM      29.98S
POWAY            N/A     67  61  81 CALM      29.96S

$$

EAST SAN DIEGO COUNTY

CITY           SKY/WX    TMP DP  RH WIND       PRES   REMARKS
RAMONA         CLEAR     67  57  70 CALM      29.99S
SANTEE LAKES     N/A     69  63  83 W1        29.92S
LA MESA          N/A     67  63  87 CALM      29.89S
JAMUL            N/A     66  62  87 CALM      29.94S
DESCANSO N       N/A     65  56  73 NE3       29.86F
MT. LAGUNA OBS   N/A     64  60  87 NE5       29.80F
CAMPO            N/A     66  48  52 NE5       30.02F

$$

ORANGE COUNTY AND THE LOS ANGELES BASIN

CITY           SKY/WX    TMP DP  RH WIND       PRES   REMARKS
JOHN WAYNE AP  PTCLDY    71  63  75 CALM      29.95F
LAGUNA BEACH     N/A     67  64  88 CALM      29.95S
LAKE FOREST FR   N/A     64  58  81 CALM      29.82S
HUNTINGTON BCH   N/A     65  64  94 CALM      29.96F
LOS ALAMITOS   FAIR      66  62  89 CALM      29.96F
FULLERTON      CLEAR     69  62  78 CALM      29.95F
LONG BEACH     CLEAR     71  63  75 CALM      29.96S
L.A. AP        PTCLDY    69  64  84 NW5       29.96F
L.A. DOWNTOWN  CLEAR     69  64  84 CALM      29.96S

$$

THE INLAND EMPIRE

CITY           SKY/WX    TMP DP  RH WIND       PRES   REMARKS
CORONA         CLEAR     67  64  90 W3        29.97F
CHINO          CLEAR     67  61  81 CALM      29.98F
ONTARIO        CLEAR     69  62  78 SW5       29.97F
SAN BERNARDINO FAIR      73  60  63 W5        29.99S
RIVERSIDE AP   CLEAR     70  61  73 W3        29.97S
MORENO VALLEY    N/A     71  61  70 CALM      28.10F
MARCH ARB      CLEAR     68  65  90 CALM      29.99S
HORSETHIEF CYN   N/A     69  55  60 CALM      29.92F
PERRIS           N/A     71  62  74 CALM      30.01S
HEMET EAST       N/A     72  44  36 CALM      29.95F
FRENCH VALLEY  FAIR      68  55  64 SE3       30.00S
TEMECULA         N/A     68  59  74 CALM      29.95S

$$

SAN BERNARDINO AND RIVERSIDE COUNTY MOUNTAINS

CITY           SKY/WX    TMP DP  RH WIND       PRES   REMARKS
BIG BEAR AP    CLEAR     50  37  62 CALM      30.32S
ANGELUS OAKS     N/A     62  39  42 CALM      29.85S

$$

SOUTHERN DESERT INCLUDING THE COACHELLA VALLEY

CITY           SKY/WX    TMP DP  RH WIND       PRES   REMARKS
PALM SPRINGS   CLEAR     89  70  53 NE5       29.92F
THOUSAND PALMS   N/A     87  71  60 E2        29.87S
PALM DESERT      N/A     87  74  64 CALM      29.69S HX  95
THERMAL        CLEAR     87  73  62 S3        29.86S
BORREGO AP     CLOUDY    86  72  62 S5        29.90S
BLYTHE         CLEAR     88  67  49 SW15      29.89S
IMPERIAL AP    CLEAR     84  75  74 E9        29.85S
EL CENTRO NAS  CLEAR     83  70  64 E3        29.88R
YUMA AZ        CLEAR     83  75  77 S8        29.89S
MEXICALI         N/A    N/A N/A N/A MISG        N/A

$$

UPPER DESERT

CITY           SKY/WX    TMP DP  RH WIND       PRES   REMARKS
HESPERIA         N/A     74  50  43 CALM      29.89S
APPLE VALLEY     N/A     62  53  71 CALM      29.93S
PALMDALE       CLEAR     77  46  33 SW9       30.03S
LANCASTER      CLEAR     76  48  37 W9        30.01F
EDWARDS AFB    CLEAR     73  41  31 SW10      29.98F
DAGGETT        CLEAR     80  41  24 W14       29.97S
29 PALMS N     CLEAR     84  66  54 SW6       30.05S
NEEDLES        CLEAR     93  66  40 S12       29.88S HX  96

$$

REGIONAL REPORTS

CITY           SKY/WX    TMP DP  RH WIND       PRES   REMARKS
SANTA BARBARA  CLOUDY    61  58  90 CALM      29.96S
SANDBERG         N/A    N/A N/A N/A MISG      30.18S
LAS VEGAS NV   PTCLDY    91  55  29 S7G20     29.91S
PHOENIX AZ     PTCLDY    89  69  51 W16       29.90S
TIJUANA        CLEAR     66  64  94 CALM      29.99S
ENSENADA NW      N/A     69  32  25 CALM      29.90F

$$

OFFSHORE ISLANDS

CITY           SKY/WX    TMP DP  RH WIND       PRES   REMARKS
CATALINA ARPT  CLEAR     74  52  46 CALM      30.00F
SAN CLEMENTE I MOCLDY    63 N/A N/A NW5       29.98S
SAN NICOLAS IS CLEAR    N/A N/A N/A W5        29.96F

$$

MARINE AND OFFSHORE BUOY REPORTS

STATION/POSITION SKY/WX   TEMP    WIND        PRES    VSBY  SWELL
                          AIR SEA DIR/SP/G                  HT/PER/DIR
                          (F)     (DEG/KT/KT) (MB)    (MI)  (FT/S/D)
TANNER BANKS               62 63  310/  6/  8 1014.4F         3/170/12
S CLEMENTE BASIN           66 67  340/  4/  6 1014.4F         5/150/12
SAN NICOLAS IS.               64                N/A           3/210/15
SO. S. ROSA ISLA           60 64  310/  8/ 12 1015.3F         5/210/15
W. S. BARBARA CH                                N/A
M. S. BARBARA CH           62 66  220/  4/  6 1015.2S         2/250/ 8
S. MONICA BASIN            67      CALM  /  2 1014.8F         3/220/15
S PEDRO CHANNEL               67                N/A           2/170/13
OCEANSIDE OFFSHR              72                N/A           2/210/14
TORREY PINES OTR              72                N/A           2/220/15
SAN DIEGO BAY                 73              1013.9
IMPERIAL BEACH                70                N/A           2/240/14
POINT LOMA SOUTH              72                N/A           3/180/12

$$



 

View Past Reports for San Diego, CA.

Products Courtesy of NOAA-NWS
NWS Information Parsing Script by Ken True at Saratoga Weather - Script by SE Lincoln Weather.